Location: �clusier
(49.9361°N, 2.7869°E)
Time: 04:57:19
(UTC+00:00)

Cosmos 2016 Rocket - Pass Details

Date: 27 October 2021
Orbit: 947 x 1000 km, 83.0° (Epoch: 05 December)

Event Time Altitude Azimuth Distance (km) Brightness Sun altitude
Rises 05:07:05 0° 356° (N) 3,631 6.9 -13.9°
Reaches altitude 10° 05:09:59 10° 8° (N) 2,681 6.4 -13.4°
Maximum altitude 05:15:11 28° 66° (ENE) 1,693 6.0 -12.6°
Drops below altitude 10° 05:20:22 10° 125° (SE) 2,678 7.3 -11.8°
Sets 05:23:14 0° 136° (SE) 3,625 7.8 -11.3°
